| time (UTC) | temp C | wind direction | speed KPH | gust KPH | rain 1hr cm | rain 24hr cm | rain mn cm | humidity % | barometer mb |
| 20260506081043 | 7 | 180 | 0.0 | 0.0 | 0.00 | 0.00 | 0.00 | 99 | 1015.1 |
| 20260506080541 | 7 | 180 | 0.0 | 0.0 | 0.00 | 0.00 | 0.00 | 99 | 1015.0 |
| 20260506073524 | 7 | 180 | 0.0 | 0.0 | 0.00 | 0.00 | 0.00 | 99 | 1014.9 |
| 20260506073021 | 7 | 180 | 0.0 | 0.0 | 0.00 | 0.00 | 0.00 | 99 | 1015.2 |
| 20260506072519 | 7 | 180 | 0.0 | 3.2 | 0.00 | 0.00 | 0.00 | 99 | 1015.1 |
| 20260506072016 | 7 | 203 | 0.0 | 0.0 | 0.00 | 0.00 | 0.00 | 99 | 1015.0 |
| 20260506071514 | 7 | 203 | 0.0 | 0.0 | 0.00 | 0.00 | 0.00 | 99 | 1014.7 |
| 20260506071011 | 7 | 203 | 0.0 | 0.0 | 0.00 | 0.00 | 0.00 | 99 | 1014.9 |
| 20260506070508 | 7 | 203 | 0.0 | 0.0 | 0.00 | 0.00 | 0.00 | 99 | 1014.7 |
| 20260506062445 | 7 | 346 | 0.0 | 0.0 | 0.00 | 0.30 | 0.30 | 99 | 1014.3 |
| 20260506061941 | 7 | 346 | 0.0 | 0.0 | 0.00 | 0.30 | 0.30 | 99 | 1014.4 |
| 20260506061438 | 7 | 173 | 0.0 | 0.0 | 0.00 | 0.30 | 0.30 | 99 | 1014.4 |
| 20260506060936 | 7 | 173 | 0.0 | 0.0 | 0.00 | 0.30 | 0.30 | 99 | 1014.4 |
| 20260506060434 | 7 | 173 | 0.0 | 0.0 | 0.00 | 0.30 | 0.30 | 99 | 1014.1 |
| 20260506051406 | 7 | 206 | 0.0 | 0.0 | 0.00 | 0.30 | 0.30 | 99 | 1013.6 |
| 20260506050903 | 7 | 206 | 0.0 | 0.0 | 0.00 | 0.30 | 0.30 | 99 | 1014.0 |
| 20260506050400 | 7 | 206 | 0.0 | 0.0 | 0.00 | 0.30 | 0.30 | 99 | 1014.1 |
| 20260506044851 | 7 | 334 | 0.0 | 0.0 | 0.00 | 0.30 | 0.30 | 99 | 1013.6 |
| 20260506044349 | 7 | 334 | 0.0 | 3.2 | 0.00 | 0.30 | 0.30 | 99 | 1013.7 |
| 20260506043845 | 7 | 334 | 1.6 | 3.2 | 0.18 | 0.30 | 0.30 | 99 | 1014.0 |
| 20260506043343 | 7 | 203 | 0.0 | 0.0 | 0.18 | 0.30 | 0.30 | 99 | 1013.8 |
| 20260506042841 | 7 | 203 | 1.6 | 1.6 | 0.00 | 0.28 | 0.28 | 99 | 1013.6 |
| 20260506042340 | 7 | 340 | 0.0 | 0.0 | 0.00 | 0.28 | 0.28 | 99 | 1013.5 |
| 20260506041838 | 7 | 340 | 0.0 | 0.0 | 0.00 | 0.28 | 0.28 | 99 | 1013.6 |
| 20260506041335 | 7 | 346 | 1.6 | 1.6 | 0.00 | 0.28 | 0.28 | 99 | 1013.4 |
| 20260506040832 | 7 | 340 | 0.0 | 0.0 | 0.00 | 0.28 | 0.28 | 99 | 1013.2 |
| 20260506040329 | 7 | 234 | 0.0 | 0.0 | 0.00 | 0.28 | 0.28 | 99 | 1013.2 |
| 20260506035825 | 7 | 234 | 0.0 | 0.0 | 0.00 | 0.28 | 0.28 | 99 | 1013.4 |
| 20260506035323 | 7 | 234 | 0.0 | 1.6 | 0.00 | 0.28 | 0.28 | 99 | 1013.3 |
| 20260506034820 | 7 | 331 | 0.0 | 3.2 | 0.00 | 0.28 | 0.28 | 99 | 1013.3 |
| 20260506034317 | 7 | 246 | 0.0 | 0.0 | 0.00 | 0.28 | 0.28 | 99 | 1012.9 |
| 20260506033814 | 7 | 340 | 0.0 | 3.2 | 0.00 | 0.28 | 0.28 | 99 | 1013.1 |
| 20260506033311 | 7 | 261 | 0.0 | 0.0 | 0.00 | 0.28 | 0.28 | 99 | 1013.1 |
| 20260506032808 | 8 | 240 | 0.0 | 1.6 | 0.00 | 0.28 | 0.28 | 99 | 1012.7 |
| 20260506032306 | 7 | 340 | 0.0 | 4.8 | 0.00 | 0.28 | 0.28 | 99 | 1012.6 |
| 20260506031801 | 7 | 8 | 0.0 | 0.0 | 0.00 | 0.28 | 0.28 | 99 | 1012.4 |
| 20260506031259 | 8 | 8 | 0.0 | 0.0 | 0.00 | 0.28 | 0.28 | 99 | 1012.5 |
| 20260506030757 | 8 | 8 | 0.0 | 0.0 | 0.00 | 0.28 | 0.28 | 99 | 1012.5 |
| 20260506030254 | 8 | 8 | 0.0 | 0.0 | 0.00 | 0.28 | 0.28 | 99 | 1012.5 |
| 20260506025751 | 8 | 10 | 3.2 | 3.2 | 0.00 | 0.28 | 0.28 | 99 | 1012.6 |
| 20260506025247 | 8 | 352 | 0.0 | 0.0 | 0.00 | 0.28 | 0.28 | 99 | 1012.3 |
| 20260506024744 | 8 | 352 | 0.0 | 0.0 | 0.00 | 0.28 | 0.28 | 99 | 1012.6 |
| 20260506024241 | 8 | 352 | 0.0 | 0.0 | 0.00 | 0.28 | 0.28 | 99 | 1012.5 |
| 20260506023737 | 8 | 331 | 0.0 | 0.0 | 0.00 | 0.28 | 0.28 | 99 | 1012.3 |
| 20260506023234 | 8 | 331 | 0.0 | 0.0 | 0.00 | 0.28 | 0.28 | 99 | 1012.3 |
| 20260506022731 | 8 | 331 | 0.0 | 0.0 | 0.00 | 0.28 | 0.28 | 99 | 1012.4 |
| 20260506022229 | 8 | 331 | 0.0 | 3.2 | 0.00 | 0.28 | 0.28 | 99 | 1012.2 |
| 20260506021727 | 8 | 162 | 1.6 | 3.2 | 0.00 | 0.28 | 0.28 | 99 | 1012.2 |
| 20260506021223 | 8 | 345 | 0.0 | 3.2 | 0.00 | 0.28 | 0.28 | 99 | 1012.3 |
| 20260506020720 | 7 | 352 | 0.0 | 0.0 | 0.00 | 0.28 | 0.28 | 99 | 1011.9 |
| 20260506020218 | 7 | 14 | 0.0 | 0.0 | 0.00 | 0.28 | 0.28 | 99 | 1011.9 |
| 20260506015715 | 7 | 14 | 0.0 | 1.6 | 0.00 | 0.28 | 0.28 | 99 | 1012.2 |
| 20260506015213 | 7 | 15 | 0.0 | 0.0 | 0.00 | 0.28 | 0.28 | 99 | 1012.2 |
| 20260506014710 | 7 | 15 | 0.0 | 0.0 | 0.00 | 0.28 | 0.28 | 99 | 1012.0 |
| 20260506014206 | 7 | 270 | 0.0 | 0.0 | 0.00 | 0.28 | 0.28 | 99 | 1012.3 |
| 20260506013703 | 8 | 270 | 0.0 | 1.6 | 0.00 | 0.28 | 0.28 | 99 | 1012.4 |
| 20260506013200 | 8 | 352 | 0.0 | 1.6 | 0.00 | 0.28 | 0.28 | 99 | 1012.3 |
| 20260506012656 | 8 | 345 | 0.0 | 0.0 | 0.00 | 0.28 | 0.28 | 99 | 1012.0 |
| 20260506012153 | 8 | 337 | 0.0 | 0.0 | 0.00 | 0.28 | 0.28 | 99 | 1012.2 |
| 20260506011651 | 8 | 337 | 0.0 | 1.6 | 0.00 | 0.28 | 0.28 | 99 | 1012.0 |
| 20260506011147 | 8 | 337 | 0.0 | 0.0 | 0.00 | 0.28 | 0.28 | 99 | 1011.8 |
| 20260506010646 | 8 | 337 | 1.6 | 1.6 | 0.00 | 0.28 | 0.28 | 99 | 1012.0 |
| 20260506010143 | 7 | 0 | 0.0 | 0.0 | 0.00 | 0.28 | 0.28 | 99 | 1011.6 |
| 20260506005639 | 7 | 0 | 0.0 | 0.0 | 0.00 | 0.28 | 0.28 | 99 | 1011.6 |
| 20260506005136 | 7 | 0 | 0.0 | 0.0 | 0.00 | 0.28 | 0.28 | 99 | 1011.8 |
| 20260506004632 | 7 | 0 | 0.0 | 0.0 | 0.00 | 0.28 | 0.28 | 99 | 1011.7 |
| 20260506004130 | 7 | 0 | 0.0 | 0.0 | 0.00 | 0.28 | 0.28 | 99 | 1011.7 |
| 20260506003626 | 7 | 0 | 0.0 | 0.0 | 0.00 | 0.28 | 0.28 | 99 | 1011.8 |
| 20260506003122 | 7 | 0 | 0.0 | 0.0 | 0.00 | 0.28 | 0.28 | 99 | 1011.7 |
| 20260506002618 | 7 | 0 | 0.0 | 0.0 | 0.00 | 0.28 | 0.28 | 99 | 1011.8 |
| 20260506002114 | 7 | 278 | 0.0 | 0.0 | 0.00 | 0.28 | 0.28 | 99 | 1011.8 |
| 20260506001610 | 7 | 278 | 0.0 | 0.0 | 0.00 | 0.28 | 0.28 | 99 | 1011.6 |
| 20260506001108 | 7 | 294 | 1.6 | 1.6 | 0.00 | 0.28 | 0.28 | 99 | 1011.8 |
| 20260506000605 | 7 | 331 | 0.0 | 3.2 | 0.00 | 0.28 | 0.28 | 99 | 1011.7 |
| 20260505235601 | 7 | 355 | 0.0 | 3.2 | 0.00 | 0.28 | 0.28 | 99 | 1011.6 |
| 20260505235057 | 7 | 0 | 3.2 | 6.4 | 0.00 | 0.28 | 0.28 | 99 | 1011.5 |
| 20260505234554 | 7 | 337 | 0.0 | 1.6 | 0.00 | 0.28 | 0.28 | 99 | 1011.5 |
| 20260505234050 | 7 | 6 | 0.0 | 0.0 | 0.00 | 0.28 | 0.28 | 99 | 1011.5 |
| 20260505233549 | 7 | 6 | 0.0 | 1.6 | 0.00 | 0.28 | 0.28 | 99 | 1011.5 |
| 20260505233046 | 7 | 356 | 3.2 | 3.2 | 0.00 | 0.28 | 0.28 | 99 | 1011.4 |
| 20260505232543 | 7 | 0 | 0.0 | 3.2 | 0.00 | 0.28 | 0.28 | 99 | 1011.7 |
| 20260505232041 | 7 | 0 | 0.0 | 1.6 | 0.00 | 0.28 | 0.28 | 99 | 1011.5 |
| 20260505231537 | 7 | 325 | 0.0 | 3.2 | 0.00 | 0.28 | 0.28 | 99 | 1011.4 |
| 20260505231036 | 7 | 240 | 1.6 | 3.2 | 0.00 | 0.28 | 0.28 | 99 | 1011.6 |
| 20260505230533 | 7 | 251 | 1.6 | 1.6 | 0.00 | 0.28 | 0.28 | 99 | 1011.5 |
| 20260505230030 | 7 | 353 | 0.0 | 3.2 | 0.00 | 0.28 | 0.28 | 99 | 1011.5 |
| 20260505225526 | 7 | 251 | 1.6 | 3.2 | 0.00 | 0.28 | 0.28 | 99 | 1011.6 |
| 20260505225022 | 7 | 0 | 1.6 | 1.6 | 0.00 | 0.28 | 0.28 | 99 | 1011.4 |
| 20260505224520 | 7 | 354 | 1.6 | 3.2 | 0.00 | 0.28 | 0.28 | 99 | 1011.4 |
| 20260505224017 | 7 | 330 | 0.0 | 3.2 | 0.00 | 0.28 | 0.28 | 99 | 1011.7 |
| 20260505223514 | 7 | 356 | 3.2 | 3.2 | 0.00 | 0.28 | 0.28 | 99 | 1011.5 |
| 20260505223010 | 7 | 354 | 1.6 | 3.2 | 0.00 | 0.28 | 0.28 | 99 | 1011.7 |
| 20260505222506 | 7 | 7 | 1.6 | 1.6 | 0.00 | 0.28 | 0.28 | 99 | 1011.5 |
| 20260505222002 | 7 | 354 | 0.0 | 3.2 | 0.00 | 0.28 | 0.28 | 99 | 1011.5 |
| 20260505221500 | 7 | 254 | 0.0 | 3.2 | 0.00 | 0.28 | 0.28 | 99 | 1011.6 |
| 20260505220957 | 7 | 300 | 0.0 | 1.6 | 0.00 | 0.28 | 0.28 | 99 | 1011.5 |
| 20260505220453 | 7 | 348 | 0.0 | 3.2 | 0.00 | 0.28 | 0.28 | 99 | 1011.6 |
| 20260505215951 | 7 | 215 | 0.0 | 0.0 | 0.00 | 0.28 | 0.28 | 99 | 1011.6 |
| 20260505215449 | 7 | 209 | 0.0 | 3.2 | 0.00 | 0.28 | 0.28 | 99 | 1011.6 |
| 20260505214947 | 7 | 270 | 0.0 | 1.6 | 0.00 | 0.28 | 0.28 | 99 | 1011.6 |
| 20260505214444 | 7 | 300 | 0.0 | 3.2 | 0.00 | 0.28 | 0.28 | 99 | 1011.7 |
| 20260505213941 | 7 | 343 | 4.8 | 4.8 | 0.00 | 0.28 | 0.28 | 99 | 1011.6 |
| 20260505213439 | 7 | 334 | 0.0 | 3.2 | 0.00 | 0.28 | 0.28 | 99 | 1011.7 |
| 20260505212935 | 7 | 294 | 0.0 | 4.8 | 0.00 | 0.28 | 0.28 | 99 | 1011.6 |
| 20260505212432 | 7 | 338 | 0.0 | 9.7 | 0.00 | 0.28 | 0.28 | 99 | 1011.7 |
| 20260505211928 | 7 | 353 | 1.6 | 1.6 | 0.00 | 0.28 | 0.28 | 99 | 1011.7 |
| 20260505211426 | 7 | 15 | 3.2 | 3.2 | 0.00 | 0.28 | 0.28 | 99 | 1011.8 |
| 20260505210922 | 7 | 340 | 0.0 | 1.6 | 0.00 | 0.28 | 0.28 | 99 | 1011.9 |
| 20260505210420 | 7 | 4 | 3.2 | 4.8 | 0.00 | 0.28 | 0.28 | 99 | 1011.6 |
| 20260505205916 | 7 | 346 | 4.8 | 4.8 | 0.00 | 0.28 | 0.28 | 99 | 1011.5 |
| 20260505205415 | 7 | 294 | 1.6 | 3.2 | 0.00 | 0.28 | 0.28 | 99 | 1011.7 |
| 20260505204911 | 7 | 243 | 0.0 | 3.2 | 0.00 | 0.28 | 0.28 | 99 | 1011.4 |
| 20260505204409 | 7 | 270 | 1.6 | 3.2 | 0.00 | 0.28 | 0.28 | 99 | 1011.6 |
| 20260505203906 | 7 | 283 | 0.0 | 1.6 | 0.00 | 0.28 | 0.28 | 99 | 1011.3 |
| 20260505203402 | 7 | 337 | 0.0 | 1.6 | 0.00 | 0.28 | 0.28 | 99 | 1011.5 |
| 20260505202859 | 7 | 254 | 3.2 | 3.2 | 0.00 | 0.28 | 0.28 | 99 | 1011.5 |
| 20260505202355 | 7 | 0 | 1.6 | 4.8 | 0.00 | 0.28 | 0.28 | 99 | 1011.5 |
| 20260505201852 | 7 | 351 | 4.8 | 4.8 | 0.00 | 0.28 | 0.28 | 99 | 1011.6 |
| 20260505201349 | 7 | 254 | 0.0 | 1.6 | 0.00 | 0.28 | 0.28 | 99 | 1011.5 |
| 20260505200847 | 7 | 0 | 1.6 | 3.2 | 0.00 | 0.28 | 0.28 | 99 | 1011.3 |
| 20260505200344 | 7 | 0 | 0.0 | 3.2 | 0.00 | 0.28 | 0.28 | 99 | 1011.5 |
| 20260505195839 | 7 | 354 | 0.0 | 4.8 | 0.00 | 0.28 | 0.28 | 99 | 1011.7 |
| 20260505195337 | 7 | 0 | 1.6 | 4.8 | 0.00 | 0.28 | 0.28 | 99 | 1011.1 |
| 20260505194834 | 7 | 346 | 1.6 | 3.2 | 0.00 | 0.28 | 0.28 | 99 | 1011.5 |
| 20260505194331 | 7 | 0 | 0.0 | 4.8 | 0.00 | 0.28 | 0.28 | 99 | 1011.5 |
| 20260505193826 | 7 | 348 | 0.0 | 1.6 | 0.00 | 0.28 | 0.28 | 99 | 1011.5 |
| 20260505193324 | 7 | 337 | 0.0 | 3.2 | 0.00 | 0.28 | 0.28 | 99 | 1011.5 |
| 20260505192822 | 7 | 306 | 1.6 | 3.2 | 0.00 | 0.28 | 0.28 | 99 | 1011.5 |
| 20260505192320 | 7 | 324 | 0.0 | 3.2 | 0.00 | 0.28 | 0.28 | 99 | 1011.3 |
| 20260505191817 | 7 | 353 | 1.6 | 4.8 | 0.00 | 0.28 | 0.28 | 99 | 1011.5 |
| 20260505191316 | 7 | 340 | 1.6 | 4.8 | 0.00 | 0.28 | 0.28 | 99 | 1011.6 |
| 20260505190812 | 7 | 262 | 0.0 | 3.2 | 0.00 | 0.28 | 0.28 | 99 | 1011.4 |
| 20260505190308 | 7 | 275 | 0.0 | 3.2 | 0.00 | 0.28 | 0.28 | 99 | 1011.1 |
| 20260505185804 | 7 | 254 | 0.0 | 3.2 | 0.00 | 0.28 | 0.28 | 99 | 1011.5 |
| 20260505185300 | 7 | 344 | 0.0 | 3.2 | 0.00 | 0.28 | 0.28 | 99 | 1011.1 |
| 20260505184756 | 7 | 0 | 0.0 | 1.6 | 0.00 | 0.28 | 0.28 | 99 | 1011.3 |
| 20260505184254 | 7 | 246 | 0.0 | 0.0 | 0.00 | 0.28 | 0.28 | 99 | 1011.4 |
| 20260505183751 | 7 | 286 | 0.0 | 1.6 | 0.00 | 0.28 | 0.28 | 99 | 1011.3 |
| 20260505183248 | 6 | 98 | 0.0 | 1.6 | 0.00 | 0.28 | 0.28 | 99 | 1011.5 |
| 20260505182744 | 7 | 195 | 0.0 | 1.6 | 0.00 | 0.28 | 0.28 | 99 | 1011.3 |
| 20260505182241 | 6 | 180 | 0.0 | 0.0 | 0.00 | 0.28 | 0.28 | 99 | 1011.3 |
| 20260505181737 | 6 | 270 | 0.0 | 1.6 | 0.00 | 0.28 | 0.28 | 99 | 1011.0 |
| 20260505181235 | 6 | 345 | 0.0 | 1.6 | 0.00 | 0.28 | 0.28 | 99 | 1011.1 |
| 20260505180731 | 6 | 346 | 0.0 | 3.2 | 0.00 | 0.28 | 0.28 | 99 | 1011.1 |
| 20260505180228 | 7 | 294 | 0.0 | 1.6 | 0.00 | 0.28 | 0.28 | 99 | 1011.1 |
| 20260505175724 | 6 | 278 | 0.0 | 3.2 | 0.00 | 0.28 | 0.28 | 99 | 1010.8 |
| 20260505175221 | 6 | 6 | 0.0 | 1.6 | 0.00 | 0.28 | 0.28 | 99 | 1011.3 |
| 20260505174718 | 6 | 286 | 0.0 | 3.2 | 0.00 | 0.28 | 0.28 | 99 | 1011.0 |
| 20260505174215 | 6 | 345 | 0.0 | 1.6 | 0.00 | 0.28 | 0.28 | 99 | 1010.8 |
| 20260505173710 | 6 | 346 | 0.0 | 4.8 | 0.00 | 0.28 | 0.28 | 99 | 1010.9 |
| 20260505173207 | 6 | 331 | 0.0 | 1.6 | 0.00 | 0.28 | 0.28 | 99 | 1010.9 |
| 20260505172705 | 6 | 346 | 0.0 | 1.6 | 0.00 | 0.28 | 0.28 | 99 | 1010.8 |
| 20260505172201 | 6 | 7 | 0.0 | 1.6 | 0.00 | 0.28 | 0.28 | 99 | 1010.7 |
| 20260505171701 | 6 | 353 | 0.0 | 3.2 | 0.00 | 0.28 | 0.28 | 99 | 1010.7 |
| 20260505171158 | 6 | 12 | 1.6 | 3.2 | 0.00 | 0.28 | 0.28 | 99 | 1010.6 |
| 20260505170655 | 6 | 289 | 0.0 | 0.0 | 0.00 | 0.28 | 0.28 | 99 | 1010.5 |
| 20260505170152 | 6 | 240 | 0.0 | 0.0 | 0.00 | 0.28 | 0.28 | 99 | 1010.7 |
| 20260505165652 | 6 | 270 | 0.0 | 3.2 | 0.00 | 0.28 | 0.28 | 99 | 1010.6 |
| 20260505165148 | 6 | 354 | 1.6 | 1.6 | 0.00 | 0.28 | 0.28 | 99 | 1010.6 |
| 20260505164644 | 6 | 270 | 0.0 | 1.6 | 0.00 | 0.28 | 0.28 | 99 | 1010.8 |
| 20260505164142 | 6 | 291 | 0.0 | 1.6 | 0.00 | 0.28 | 0.28 | 99 | 1010.4 |
| 20260505163640 | 6 | 0 | 0.0 | 1.6 | 0.00 | 0.28 | 0.28 | 99 | 1010.6 |
| 20260505163138 | 6 | 355 | 1.6 | 1.6 | 0.00 | 0.28 | 0.28 | 99 | 1010.7 |
| 20260505162634 | 6 | 337 | 1.6 | 3.2 | 0.00 | 0.28 | 0.28 | 99 | 1010.6 |
| 20260505162132 | 6 | 0 | 0.0 | 0.0 | 0.00 | 0.28 | 0.28 | 99 | 1010.6 |
| 20260505161629 | 6 | 0 | 0.0 | 0.0 | 0.00 | 0.28 | 0.28 | 99 | 1010.7 |
| 20260505161126 | 6 | 97 | 0.0 | 0.0 | 0.00 | 0.28 | 0.28 | 99 | 1010.7 |
| 20260505160624 | 6 | 97 | 0.0 | 0.0 | 0.00 | 0.28 | 0.28 | 99 | 1010.6 |
| 20260505160121 | 6 | 97 | 0.0 | 0.0 | 0.00 | 0.28 | 0.28 | 99 | 1010.5 |
| 20260505153101 | 6 | 82 | 1.6 | 1.6 | 0.00 | 0.28 | 0.28 | 99 | 1010.5 |
| 20260505152557 | 5 | 90 | 0.0 | 1.6 | 0.00 | 0.28 | 0.28 | 99 | 1010.4 |
| 20260505152053 | 5 | 90 | 0.0 | 0.0 | 0.00 | 0.28 | 0.28 | 99 | 1010.4 |
| 20260505151548 | 5 | 90 | 0.0 | 1.6 | 0.00 | 0.28 | 0.28 | 99 | 1010.5 |
| 20260505151046 | 5 | 20 | 0.0 | 1.6 | 0.00 | 0.28 | 0.28 | 99 | 1010.5 |
| 20260505150542 | 5 | 66 | 0.0 | 1.6 | 0.00 | 0.28 | 0.28 | 99 | 1010.2 |
| 20260505140507 | 4 | 123 | 0.0 | 0.0 | 0.00 | 0.28 | 0.28 | 99 | 1009.9 |
| 20260505124921 | 4 | 114 | 0.0 | 0.0 | 0.00 | 0.28 | 0.28 | 98 | 1009.8 |
| 20260505124418 | 3 | 114 | 0.0 | 0.0 | 0.00 | 0.28 | 0.28 | 98 | 1009.6 |
| 20260505123914 | 3 | 114 | 0.0 | 0.0 | 0.00 | 0.28 | 0.28 | 98 | 1009.9 |
| 20260505123410 | 3 | 114 | 0.0 | 0.0 | 0.00 | 0.28 | 0.28 | 98 | 1009.6 |
| 20260505122906 | 3 | 114 | 0.0 | 0.0 | 0.00 | 0.28 | 0.28 | 98 | 1009.9 |
| 20260505122404 | 3 | 114 | 0.0 | 0.0 | 0.00 | 0.28 | 0.28 | 98 | 1009.6 |
| 20260505121900 | 3 | 114 | 0.0 | 0.0 | 0.00 | 0.28 | 0.28 | 98 | 1009.6 |
| 20260505121357 | 3 | 114 | 0.0 | 0.0 | 0.00 | 0.28 | 0.28 | 98 | 1009.6 |
| 20260505120853 | 3 | 114 | 0.0 | 0.0 | 0.00 | 0.28 | 0.28 | 98 | 1009.6 |
| 20260505120350 | 3 | 114 | 0.0 | 0.0 | 0.00 | 0.28 | 0.28 | 98 | 1009.7 |
| 20260505115848 | 3 | 115 | 0.0 | 3.2 | 0.00 | 0.28 | 0.28 | 98 | 1009.5 |
| 20260505115346 | 3 | 127 | 3.2 | 3.2 | 0.00 | 0.28 | 0.28 | 98 | 1009.3 |
| 20260505114844 | 3 | 151 | 0.0 | 1.6 | 0.00 | 0.28 | 0.28 | 98 | 1009.6 |
| 20260505114340 | 3 | 105 | 0.0 | 1.6 | 0.00 | 0.28 | 0.28 | 98 | 1009.7 |
| 20260505113836 | 3 | 120 | 0.0 | 0.0 | 0.00 | 0.28 | 0.28 | 98 | 1009.6 |
| 20260505113333 | 3 | 120 | 0.0 | 0.0 | 0.00 | 0.28 | 0.28 | 98 | 1009.2 |
| 20260505112828 | 3 | 120 | 0.0 | 1.6 | 0.00 | 0.28 | 0.28 | 98 | 1009.7 |
| 20260505112326 | 3 | 105 | 0.0 | 0.0 | 0.00 | 0.28 | 0.28 | 98 | 1009.8 |
| 20260505111821 | 3 | 105 | 0.0 | 1.6 | 0.00 | 0.28 | 0.28 | 98 | 1009.6 |
| 20260505111317 | 3 | 173 | 0.0 | 3.2 | 0.00 | 0.28 | 0.28 | 98 | 1009.7 |
| 20260505110814 | 3 | 157 | 0.0 | 1.6 | 0.00 | 0.28 | 0.28 | 98 | 1009.8 |
| 20260505110311 | 3 | 165 | 0.0 | 1.6 | 0.00 | 0.28 | 0.28 | 98 | 1009.8 |
| 20260505101745 | 4 | 180 | 0.0 | 0.0 | 0.00 | 0.28 | 0.28 | 98 | 1009.7 |
| 20260505101241 | 4 | 180 | 0.0 | 0.0 | 0.00 | 0.28 | 0.28 | 98 | 1009.7 |
| 20260505100738 | 4 | 180 | 0.0 | 0.0 | 0.00 | 0.28 | 0.28 | 98 | 1009.8 |
| 20260505100234 | 4 | 180 | 0.0 | 0.0 | 0.00 | 0.28 | 0.28 | 98 | 1009.9 |
| 20260505095729 | 4 | 194 | 1.6 | 1.6 | 0.00 | 0.28 | 0.28 | 98 | 1010.2 |
| 20260505095228 | 5 | 180 | 0.0 | 1.6 | 0.00 | 0.28 | 0.28 | 98 | 1010.4 |
| 20260505094723 | 5 | 117 | 0.0 | 3.2 | 0.13 | 0.28 | 0.28 | 98 | 1010.0 |
| 20260505094220 | 5 | 109 | 0.0 | 0.0 | 0.13 | 0.28 | 0.28 | 98 | 1010.0 |
| 20260505093716 | 5 | 215 | 0.0 | 1.6 | 0.00 | 0.25 | 0.25 | 98 | 1010.1 |
| 20260505093214 | 5 | 209 | 0.0 | 0.0 | 0.00 | 0.25 | 0.25 | 98 | 1010.1 |
| 20260505092710 | 5 | 126 | 0.0 | 1.6 | 0.00 | 0.25 | 0.25 | 98 | 1010.2 |
| 20260505092209 | 5 | 111 | 0.0 | 1.6 | 0.00 | 0.25 | 0.25 | 98 | 1010.2 |
| 20260505091706 | 5 | 114 | 0.0 | 1.6 | 0.00 | 0.25 | 0.25 | 98 | 1010.1 |
| 20260505091204 | 5 | 117 | 0.0 | 0.0 | 0.00 | 0.25 | 0.25 | 98 | 1010.2 |
| 20260505090701 | 5 | 117 | 0.0 | 0.0 | 0.18 | 0.25 | 0.25 | 98 | 1010.0 |
| 20260505090159 | 5 | 117 | 0.0 | 0.0 | 0.48 | 0.25 | 0.25 | 98 | 1010.2 |
| 20260505085657 | 5 | 117 | 0.0 | 0.0 | 0.30 | 0.20 | 0.20 | 98 | 1010.0 |
| 20260505085155 | 5 | 117 | 0.0 | 0.0 | 0.30 | 0.18 | 0.18 | 98 | 1010.2 |
| 20260505084652 | 5 | 117 | 0.0 | 0.0 | 0.13 | 0.15 | 0.15 | 98 | 1010.4 |
| 20260505084150 | 5 | 117 | 0.0 | 0.0 | 0.00 | 0.13 | 0.13 | 98 | 1010.5 |
| 20260505083647 | 5 | 117 | 0.0 | 0.0 | 0.18 | 0.13 | 0.13 | 98 | 1010.2 |
| 20260505083144 | 5 | 117 | 0.0 | 1.6 | 0.30 | 0.13 | 0.13 | 98 | 1010.4 |
| 20260505082640 | 5 | 254 | 0.0 | 1.6 | 0.30 | 0.10 | 0.10 | 98 | 1010.2 |
| 20260505082137 | 5 | 106 | 0.0 | 0.0 | 0.30 | 0.08 | 0.08 | 98 | 1010.5 |
| 20260505081633 | 5 | 106 | 0.0 | 0.0 | 0.30 | 0.05 | 0.05 | 98 | 1010.8 |